Voltar ao catálogo

DELTA 1 DEB

AtivoSSO
NORAD 21273·DEBRIS·🇺🇸 United States

Lançado Jun 12, 1975 de Vandenberg Space Force Base

Loading…

Próximas Passagens (próximas 24 horas)

TLE

AtualizadoSource: Space-Track

Época: Sep 14, 2026, 12:06 UTC

1 21273U 75052J   26257.50460561 -.00000006  00000-0  68086-4 0  9992
2 21273  99.6772  95.5539 0036670  41.6551 349.3338 13.37962158505320

Acompanhe DELTA 1 DEB em tempo real com AllMySat

Download on the App Store